ECMWFFLT2_sfc_temp_000.txt.gz
Temp
78 77 75 73 72 71 72 76 76 76 75 76 75 75 74 74 74 74 70 70 71 72 75 76 75 76 74 75 74 75 75 75 75 75 75 74 74 74 74 74 73 73 73 73 73 73 72 72 72 72 72 72 73 72 73 76 78 77 78 75 74 73
78 77 74 73 74 72 73 76 77 77 78 77 76 75 74 73 75 73 71 71 71 72 74 75 75 78 75 75 75 75 75 75 75 75 74 74 74 74 74 73 73 73 73 72 73 72 72 73 72 72 72 72 70 72 75 77 75 77 75 75 74 72
81 78 75 74 74 73 73 77 78 77 76 77 78 77 75 75 74 75 73 73 71 72 74 75 75 76 75 75 75 75 75 75 75 75 74 74 74 73 73 73 73 73 72 72 72 72 73 72 72 73 73 72 71 73 76 77 76 77 75 75 73 73
82 81 77 75 74 75 76 77 77 76 75 76 77 77 76 75 75 76 76 74 72 73 72 71 75 78 77 75 74 75 75 75 75 75 75 74 74 74 74 73 73 73 72 73 73 73 76 74 73 71 72 72 73 76 77 76 76 77 75 75 73 73
83 83 80 76 76 76 77 77 77 77 76 76 75 75 75 74 74 73 72 72 73 70 69 69 74 74 73 74 74 74 74 75 75 75 74 74 74 73 73 73 73 72 73 74 75 75 75 75 74 74 74 75 76 76 76 75 76 76 75 74 71 72
82 81 79 76 73 74 76 74 75 75 74 77 76 75 72 70 70 71 72 73 72 69 69 71 71 73 74 72 72 73 74 74 73 75 74 73 72 71 74 75 74 73 74 75 75 76 76 75 75 74 76 75 76 76 76 76 76 75 73 71 71 72
85 80 79 78 76 75 75 73 73 75 74 74 76 76 70 69 69 69 72 74 73 68 70 72 71 72 68 69 69 69 71 73 72 72 72 73 72 72 72 74 74 74 75 75 76 77 76 77 74 76 76 77 76 77 77 78 77 76 73 72 72 72
85 84 80 80 76 77 75 73 71 72 74 76 72 72 68 68 69 68 72 73 75 73 71 71 72 69 67 67 68 68 70 69 69 69 69 68 68 70 72 73 73 77 76 76 76 76 75 77 75 75 75 77 76 75 75 76 77 77 74 73 72 72
84 84 82 78 77 75 73 75 72 72 73 75 74 72 71 72 70 69 71 76 76 73 72 70 70 70 69 69 68 70 69 68 67 69 70 69 68 68 72 74 73 75 74 75 73 73 76 77 75 75 76 76 76 78 76 76 76 77 76 73 73 72
85 85 84 79 72 76 74 74 74 72 71 75 71 73 74 73 74 75 76 76 77 75 72 69 68 67 67 66 70 71 70 69 68 69 69 68 69 70 71 72 74 75 77 76 74 73 73 75 77 76 76 76 76 76 75 75 77 77 76 74 73 71
86 84 86 85 80 75 74 74 74 74 71 68 70 73 73 73 73 75 76 77 77 75 74 73 69 67 68 68 70 72 70 70 70 71 70 69 69 71 73 72 73 74 75 76 74 74 75 74 75 77 76 76 76 76 76 76 76 78 76 74 73 72
83 80 79 85 81 83 81 82 79 76 72 69 70 67 71 71 75 75 77 75 75 75 73 72 71 68 67 67 69 71 71 71 70 71 71 71 71 73 73 74 74 74 74 73 73 74 73 73 73 76 77 78 78 76 76 75 77 77 77 75 74 73
84 80 81 80 81 80 80 84 81 80 80 72 69 70 73 72 73 76 75 76 75 76 74 74 70 71 70 69 70 68 69 70 71 71 72 74 74 73 74 73 73 74 73 72 71 71 73 72 72 73 74 76 75 77 77 77 75 76 77 77 76 74
80 81 79 81 78 80 79 80 78 79 79 76 76 76 72 73 72 76 76 76 75 74 74 75 75 74 72 69 69 69 71 71 72 71 71 73 73 72 71 71 70 71 70 69 69 70 70 71 71 73 72 74 71 71 72 74 74 75 77 75 77 75
78 79 80 79 80 80 78 79 80 78 77 76 77 74 75 73 73 75 74 74 74 71 71 73 75 73 72 70 68 68 69 71 72 72 69 72 71 69 68 67 68 68 67 66 67 67 68 68 68 69 70 70 70 71 71 70 71 72 75 75 75 75
79 77 77 77 76 77 77 76 77 79 78 77 76 78 74 76 74 74 73 73 74 73 72 72 73 74 71 69 68 68 68 71 72 72 72 69 71 68 67 66 66 66 64 65 65 67 67 67 67 66 66 67 68 70 70 70 70 72 74 75 76 74
78 77 77 77 78 77 77 78 78 77 80 77 77 76 77 76 73 75 73 74 74 72 74 74 74 72 71 69 67 67 69 72 72 72 70 70 70 70 66 65 64 65 65 64 65 66 67 67 67 67 67 68 68 67 69 69 70 70 73 72 73 76
77 78 76 76 76 76 78 78 78 77 78 78 79 78 78 78 75 73 74 73 74 74 75 74 73 73 71 70 68 68 70 72 72 71 70 70 69 68 66 65 63 64 65 65 65 65 64 65 68 68 67 68 67 67 67 67 68 69 70 71 70 72
77 76 76 76 77 76 76 76 75 77 76 77 77 76 76 76 75 75 73 74 73 73 73 73 73 73 70 69 69 70 69 70 70 70 70 71 68 67 65 65 64 64 66 65 66 66 64 64 64 64 65 68 68 68 67 66 67 67 68 69 70 72
76 76 75 76 77 75 76 75 75 76 77 75 77 76 76 74 74 75 76 75 75 73 75 72 72 73 70 67 66 68 68 70 70 69 69 67 67 67 66 65 65 66 65 66 67 66 65 65 65 65 65 67 67 66 67 66 66 66 66 68 69 69
75 75 74 75 75 74 75 75 74 74 72 75 75 75 75 75 75 74 75 77 76 75 75 75 75 74 72 70 69 69 69 69 69 70 68 68 67 67 66 66 65 65 65 65 65 65 65 65 63 63 64 64 65 65 65 66 65 65 65 66 67 67
74 74 75 75 75 75 76 74 74 75 74 74 75 73 72 73 73 74 74 73 73 74 74 73 73 74 74 73 69 68 70 68 69 69 68 68 67 66 66 66 66 65 67 65 63 64 64 64 62 61 60 60 62 63 64 64 64 65 65 65 66 67
74 75 75 77 76 75 74 75 76 75 76 74 75 74 75 75 75 75 72 74 73 73 73 74 74 73 74 74 73 71 70 70 68 67 68 67 66 65 66 66 66 65 64 65 65 66 64 65 62 63 63 60 57 58 60 61 63 64 64 64 65 66
75 74 75 76 74 76 75 76 75 74 73 74 72 73 73 73 73 73 72 73 73 72 72 72 75 76 74 73 71 71 72 71 69 69 68 66 66 66 66 67 67 67 66 63 64 64 67 66 66 63 58 59 58 58 55 57 59 61 63 64 64 65
75 74 74 74 75 75 74 74 73 72 72 71 72 71 71 70 72 72 72 71 71 72 72 72 72 73 73 72 71 71 70 71 72 71 71 69 68 69 69 69 68 66 67 65 62 63 65 65 66 67 62 58 57 56 56 58 59 59 62 62 64 66
75 74 74 74 74 74 73 71 71 69 67 67 66 67 67 66 69 69 70 71 73 73 73 71 72 72 73 72 72 72 71 72 71 69 71 72 72 72 70 69 69 68 66 67 65 63 63 64 65 65 64 64 62 57 57 59 59 55 60 63 63 66
74 74 75 74 74 74 73 72 71 71 69 68 67 69 70 70 69 70 71 70 71 71 72 71 71 71 71 71 71 70 69 69 70 69 70 69 67 69 72 73 71 70 68 67 67 62 62 60 62 64 65 65 64 64 63 60 56 58 56 59 62 62
74 74 75 75 74 74 72 72 71 71 71 70 69 68 70 70 71 71 69 70 70 70 72 72 71 72 71 71 71 70 70 70 71 72 71 69 69 70 70 71 70 70 69 68 67 64 62 63 61 60 62 62 64 63 62 63 63 60 57 56 58 62
75 74 74 74 73 74 73 72 72 72 70 72 71 71 72 72 70 71 69 69 70 71 70 71 72 71 70 71 70 69 69 68 68 69 71 70 69 70 68 67 67 66 66 66 66 66 65 64 64 62 62 62 63 63 62 62 62 61 58 56 58 60
75 75 74 74 74 74 73 73 72 71 71 69 71 71 71 69 69 69 69 69 68 68 68 69 69 70 69 71 69 69 69 68 67 68 68 68 67 67 66 66 66 66 66 65 65 65 63 64 65 64 65 64 62 62 60 61 61 60 61 60 57 60
75 74 75 74 74 73 74 73 73 72 71 70 70 70 68 68 68 69 68 69 68 68 68 68 68 69 68 69 68 69 68 68 68 68 68 68 66 67 66 66 66 66 65 64 63 63 63 63 63 62 63 62 61 62 60 60 60 62 61 60 58 59
74 74 74 74 73 74 74 73 73 73 72 71 71 71 69 68 69 69 68 68 68 68 68 68 67 67 68 68 68 67 68 67 67 67 67 67 68 68 67 67 66 65 65 64 64 63 62 61 61 61 61 61 61 62 61 60 61 61 60 59 59 58
74 74 74 74 73 73 73 74 73 73 72 72 71 71 70 69 70 69 69 69 68 67 67 67 66 67 67 67 67 67 67 66 66 66 67 66 66 67 66 66 66 65 64 63 62 62 60 60 61 59 60 61 62 62 61 61 62 61 61 60 60 57
74 74 74 73 74 73 73 74 74 73 72 72 71 71 70 71 70 70 70 69 69 68 67 67 67 66 68 68 68 68 68 67 66 66 67 67 68 68 67 68 66 64 64 64 64 63 62 61 61 61 61 60 61 60 60 62 61 62 61 60 58 57
74 74 74 73 73 73 73 74 74 74 73 73 71 71 71 72 71 70 70 70 70 69 68 69 68 68 69 68 68 68 67 66 67 66 66 66 68 67 66 66 66 64 64 65 64 63 62 61 62 62 61 61 61 60 60 61 60 60 62 60 59 58
74 74 73 73 73 73 73 74 74 73 73 72 72 72 71 72 71 70 70 70 70 69 70 69 69 69 68 68 68 67 67 67 67 66 66 66 67 66 67 65 65 65 64 68 64 63 62 62 61 60 61 61 61 60 61 60 62 60 61 60 60 59
71 74 74 73 72 73 72 73 73 73 73 72 72 71 71 71 71 71 71 71 70 70 71 70 70 69 68 68 68 67 67 66 66 66 66 67 66 66 66 66 65 64 63 66 64 64 63 61 62 61 62 62 60 60 60 60 61 60 60 60 60 60

ECMWFFLT2_sfc_temp_006.txt.gz
Temp
70 70 70 71 71 72 74 75 74 75 75 75 74 75 74 74 74 74 74 73 72 71 71 71 72 71 74 72 73 74 74 74 74 73 74 73 73 73 73 73 73 72 72 72 71 71 71 70 71 70 71 71 71 65 65 67 69 68 67 67 68 67
69 69 70 71 72 72 73 74 72 73 73 73 75 75 73 72 74 71 73 70 69 72 70 69 70 74 71 72 72 74 74 74 74 74 73 73 73 73 73 73 73 72 72 71 72 66 67 70 71 71 71 72 65 64 66 68 68 68 68 67 67 69
70 70 70 70 71 72 72 71 72 72 73 74 74 73 71 72 68 69 69 69 69 69 69 69 69 72 71 72 71 74 74 74 74 74 73 73 73 72 72 73 72 72 71 71 67 63 62 62 62 71 71 65 64 65 67 67 67 67 67 67 67 72
70 70 69 69 70 70 70 71 71 71 71 71 71 70 69 68 68 68 69 68 68 69 68 68 75 76 74 67 67 70 74 73 74 74 74 73 73 72 73 73 72 72 71 68 63 63 64 63 62 61 62 64 64 66 67 67 66 67 67 70 68 73
71 69 69 69 69 68 69 70 70 69 69 69 68 68 68 68 68 67 67 68 68 68 67 67 66 67 64 64 65 65 67 69 69 69 72 69 69 70 70 66 68 69 64 65 64 64 64 64 65 64 63 64 65 65 68 68 68 67 67 69 68 72
70 70 69 68 68 70 71 69 69 68 68 68 68 66 66 66 66 67 67 68 68 66 66 66 65 65 65 64 64 65 65 65 67 68 69 68 68 68 67 67 67 66 65 64 65 64 63 65 65 64 64 64 64 65 67 66 67 67 67 66 69 72
69 69 69 70 69 70 69 69 68 68 67 65 66 66 65 64 65 66 67 68 67 66 66 65 64 64 64 64 64 65 65 64 66 68 68 68 68 68 67 66 66 66 65 64 65 65 65 66 65 66 65 66 65 66 66 67 67 66 66 66 70 73
69 69 69 71 70 70 69 69 69 70 67 68 66 65 64 64 65 65 68 68 68 66 66 65 64 64 64 64 65 65 65 64 66 67 68 68 67 67 67 66 66 66 66 66 66 66 66 68 67 67 67 66 66 67 67 67 67 67 66 66 68 71
70 70 69 70 69 69 68 69 68 67 66 70 65 65 64 65 65 65 66 68 68 66 66 65 64 64 64 65 65 66 65 65 65 66 67 67 67 67 67 67 66 67 66 65 65 66 67 67 66 67 65 67 68 67 67 67 66 66 66 66 67 69
71 71 70 70 69 68 68 68 67 67 66 69 64 65 64 64 64 65 65 66 67 66 67 65 65 65 64 65 65 65 65 65 65 66 66 66 66 67 67 66 66 67 67 66 66 67 66 67 66 65 65 66 66 66 66 67 67 67 67 67 67 68
73 72 72 71 69 69 68 67 67 67 66 66 64 65 64 64 65 65 64 65 66 67 66 66 65 65 64 65 65 65 65 65 65 65 66 66 65 66 66 66 67 66 66 66 66 66 66 66 66 67 66 67 66 66 66 66 68 68 67 66 66 67
72 72 71 71 70 68 68 69 68 67 66 66 66 64 64 64 66 65 65 65 65 66 67 65 65 64 64 64 64 64 64 65 65 65 65 65 65 66 65 67 68 68 67 66 65 66 66 66 65 67 67 66 66 66 65 65 67 67 67 67 67 67
71 70 69 69 69 68 68 69 67 67 66 67 66 66 65 64 63 64 64 65 65 65 65 65 64 65 65 64 64 64 64 65 66 66 66 66 66 65 66 67 67 67 65 65 65 65 66 65 64 65 66 66 65 65 66 66 66 66 67 67 67 67
69 69 68 68 67 67 67 68 68 66 67 66 65 64 65 64 65 64 64 64 65 65 65 64 64 64 64 64 64 64 64 64 64 65 64 64 64 64 65 66 65 65 67 64 64 63 64 63 63 64 64 66 65 64 64 65 64 64 66 66 67 66
69 69 70 68 68 67 67 68 67 66 66 65 65 65 63 64 63 63 64 64 65 65 65 64 63 64 62 63 62 62 62 63 64 64 63 63 64 65 64 64 63 64 63 62 63 63 63 62 63 64 63 64 64 64 64 64 64 64 64 65 67 67
67 67 67 68 67 68 68 66 66 68 66 65 65 65 64 63 63 63 64 63 65 65 64 64 64 64 63 63 63 62 63 64 64 63 63 64 64 64 63 63 63 64 62 62 63 61 61 61 61 62 62 63 62 63 63 63 64 65 65 64 65 66
66 66 66 66 65 65 65 65 65 66 65 65 64 63 64 63 64 64 64 63 64 64 64 64 64 64 63 63 64 63 63 64 64 63 63 63 63 63 63 63 61 62 63 61 62 61 61 61 62 62 62 64 64 62 62 62 62 63 65 63 64 66
65 67 66 65 65 64 65 65 64 65 66 64 64 64 65 65 64 64 64 63 64 65 64 65 65 65 64 64 63 64 63 63 64 63 63 63 62 62 61 62 61 60 61 62 61 61 60 61 63 63 62 63 63 63 62 62 61 62 62 63 63 64
66 65 65 64 63 63 62 62 61 64 63 64 64 63 64 65 65 65 64 64 65 65 65 65 65 65 64 64 63 63 63 63 62 63 63 62 61 62 61 60 61 60 61 62 61 61 61 61 62 63 62 62 62 63 63 63 62 61 61 61 63 64
64 64 62 62 63 62 61 62 63 63 64 63 63 63 62 62 64 64 64 64 64 64 65 65 65 65 64 64 64 64 63 63 62 63 62 61 60 60 61 61 60 61 61 62 62 62 61 61 61 61 60 60 61 62 63 61 61 61 60 61 60 61
63 63 64 62 61 60 61 60 61 63 62 61 63 62 63 62 63 62 64 65 65 65 65 65 65 64 64 66 64 65 63 63 63 63 62 61 60 60 60 60 61 60 60 60 61 61 61 61 59 58 57 58 58 60 62 60 60 60 59 59 60 60
62 63 63 63 64 62 58 63 62 62 61 60 61 62 60 62 63 63 63 62 63 62 63 65 64 63 64 63 63 63 63 62 62 62 61 61 60 62 60 60 60 60 60 60 59 60 61 60 57 57 55 54 54 57 59 60 59 59 59 59 59 59
64 64 63 63 62 62 59 60 63 59 63 59 60 60 62 62 64 63 61 61 61 61 61 61 62 63 63 63 63 63 63 62 62 63 62 61 60 60 60 60 60 60 59 60 59 61 61 59 57 57 56 54 52 51 54 55 57 58 59 58 59 59
65 64 63 63 62 59 62 62 62 62 60 61 61 61 61 60 61 63 62 62 62 62 62 62 62 63 62 63 63 63 62 62 63 63 62 61 61 60 60 60 61 60 60 58 58 60 61 60 58 58 56 55 53 49 48 50 53 56 58 58 59 59
66 64 62 62 62 63 63 62 61 61 62 61 61 59 59 58 58 61 62 61 60 60 61 60 59 60 61 59 60 62 61 60 61 61 62 61 60 61 61 61 60 59 59 57 57 59 60 61 60 59 56 54 52 51 50 52 52 53 57 58 57 59
64 62 62 62 64 64 64 63 62 61 59 57 56 56 56 57 57 58 59 59 60 61 61 61 60 61 61 61 59 59 60 62 62 62 62 61 60 61 61 61 60 60 59 58 59 56 58 61 59 59 58 57 54 52 52 55 53 50 54 56 57 58
64 61 62 63 64 65 63 63 62 61 60 59 57 56 57 56 58 57 59 59 59 59 60 61 59 59 59 60 59 59 58 58 59 59 61 60 61 61 62 63 61 60 60 59 59 56 58 57 58 58 59 59 59 57 54 54 52 50 48 51 55 55
63 63 63 63 64 65 63 61 60 59 59 57 58 58 57 57 57 59 59 58 59 59 60 60 60 60 60 60 60 59 59 60 60 61 61 59 59 59 60 60 60 59 58 59 58 58 55 55 57 56 56 57 57 57 57 56 53 53 51 51 51 54
63 64 64 63 64 64 64 62 61 60 58 57 59 59 58 59 58 59 57 57 59 58 58 58 59 59 59 60 60 58 58 59 59 60 62 60 58 59 59 58 57 57 57 56 57 57 57 55 55 55 56 55 56 56 56 56 56 54 53 50 49 50
63 64 64 63 64 64 64 63 61 60 59 58 59 58 58 57 57 56 57 57 56 57 57 57 57 58 59 59 58 59 58 58 58 59 60 59 59 58 58 57 57 57 57 56 55 56 55 54 55 54 55 55 53 53 53 53 52 51 52 53 51 51
64 65 64 64 64 63 63 63 63 61 61 59 59 58 57 56 56 56 57 55 56 56 56 56 56 57 57 58 58 59 58 57 58 59 59 59 57 57 56 56 57 57 56 56 54 54 55 54 55 55 54 54 53 54 54 52 53 51 51 49 46 48
64 64 64 64 64 63 62 62 63 62 62 61 60 60 59 57 57 57 56 56 55 55 55 57 55 56 56 56 58 56 57 56 57 56 56 56 57 57 56 56 55 55 54 53 54 55 54 53 53 52 52 52 52 53 52 52 52 51 49 51 49 47
64 63 64 64 64 62 61 62 63 62 62 62 61 60 60 59 58 57 56 56 55 55 54 56 55 57 54 55 57 57 57 56 56 57 56 56 55 55 55 54 55 53 52 52 51 52 52 50 51 52 51 50 51 53 52 51 51 50 49 50 48 48
64 63 63 63 63 62 62 62 63 63 63 63 61 60 61 61 59 58 58 58 57 57 56 57 56 56 56 55 56 57 57 55 55 54 55 55 55 55 55 55 54 54 53 51 51 51 50 49 49 48 49 50 50 50 49 50 50 52 51 49 47 48
59 59 59 59 60 59 60 62 63 64 64 63 62 61 61 61 60 59 58 58 58 57 57 56 57 57 55 56 55 55 55 55 55 55 55 55 57 55 54 55 54 53 53 52 52 52 50 52 54 51 49 50 52 50 50 50 50 51 51 51 51 51
59 60 60 60 60 60 59 62 64 63 63 63 63 62 62 61 60 60 60 59 58 58 58 58 57 57 56 57 56 56 56 55 54 55 55 55 55 56 55 55 54 54 53 55 54 52 51 52 51 49 49 48 51 50 50 51 51 50 50 51 51 49
58 59 60 61 61 61 62 61 63 64 63 62 61 61 62 61 61 60 60 58 58 59 59 59 58 57 57 56 56 56 56 55 55 54 54 55 55 54 55 56 54 52 53 53 54 53 51 53 51 50 49 50 50 50 51 50 50 50 50 49 50 50

ECMWFFLT2_sfc_temp_009.txt.gz
Temp
72 72 72 72 72 72 74 75 74 75 75 75 74 74 73 74 73 74 73 73 72 70 70 70 71 70 74 71 72 73 74 74 73 73 73 73 73 73 73 73 72 72 71 71 71 71 71 70 71 70 71 72 71 66 66 66 66 66 65 66 66 64
71 72 71 72 72 72 73 74 72 73 73 73 74 74 73 72 74 69 73 71 68 71 69 67 69 74 70 71 72 73 74 74 73 73 73 73 73 72 73 72 72 72 71 71 70 64 64 66 68 70 71 70 64 63 66 65 65 65 65 64 66 67
71 71 71 71 72 72 71 71 71 71 72 73 74 73 71 72 68 69 68 68 69 69 67 68 68 72 70 72 71 73 73 73 73 73 73 73 73 72 72 72 72 72 71 70 64 61 61 62 62 67 67 64 62 65 65 65 64 65 65 65 64 70
70 70 70 70 71 71 71 71 71 70 71 71 70 70 69 68 68 67 68 66 67 68 68 66 74 75 74 67 67 72 73 73 73 73 73 72 73 72 72 72 72 72 68 65 61 61 61 61 63 61 61 62 62 65 65 65 64 65 65 68 65 72
70 69 69 70 71 70 71 71 71 71 71 70 69 69 68 67 66 66 66 67 66 67 65 65 66 67 65 64 64 64 66 67 68 67 72 66 67 68 69 66 66 66 62 62 62 61 61 62 63 62 62 62 62 63 65 65 65 64 65 65 65 72
69 68 69 69 70 71 72 70 70 70 70 69 68 67 67 66 65 65 65 67 67 65 65 65 64 64 64 63 64 63 64 64 66 66 68 66 66 66 65 66 65 64 64 62 62 62 62 63 63 63 62 62 63 63 64 64 64 64 65 64 67 72
68 68 68 69 70 72 70 70 70 69 69 68 67 66 66 65 65 65 66 67 66 64 64 63 63 63 63 63 63 63 63 63 65 66 66 67 66 66 66 65 65 64 63 62 63 62 62 63 62 64 63 64 64 64 64 64 64 64 64 64 67 72
68 68 67 69 70 71 70 69 69 71 68 69 67 65 64 64 65 65 66 66 67 65 65 63 63 63 63 62 63 63 63 63 64 66 66 67 67 66 66 65 65 64 64 64 64 64 63 64 63 63 64 64 63 64 65 64 65 65 64 64 65 71
68 68 67 69 70 70 69 69 70 68 66 70 65 64 64 64 64 65 66 67 67 65 64 64 63 63 62 63 63 63 64 63 64 65 65 66 66 66 65 65 65 65 64 64 63 64 64 64 64 63 63 64 64 64 64 64 65 64 64 64 65 67
69 68 68 69 69 69 68 68 68 67 66 70 64 64 64 64 64 64 65 66 67 65 65 64 64 63 63 63 63 63 64 63 64 64 65 65 65 66 65 65 64 64 65 64 64 64 64 63 63 62 61 64 65 65 64 65 65 65 65 65 65 65
69 70 69 69 68 68 68 67 67 66 67 67 64 65 64 64 64 64 64 65 66 66 66 65 64 63 63 63 63 63 63 64 64 64 65 65 64 65 65 65 65 64 64 64 64 64 64 64 63 64 63 63 64 65 64 64 65 66 65 65 65 64
69 69 69 69 70 68 67 67 67 66 66 66 65 63 63 63 65 64 64 64 64 65 66 65 64 63 62 62 62 62 63 64 64 64 65 64 64 64 64 65 66 65 65 65 64 64 64 64 63 64 65 64 63 63 63 64 65 65 65 65 64 65
69 69 68 68 68 67 66 68 66 66 66 66 65 64 63 63 64 64 64 64 64 65 65 64 63 64 64 62 62 62 63 63 64 64 64 64 65 63 64 65 65 65 64 64 64 64 65 63 63 63 64 64 64 63 63 64 64 64 64 65 64 65
67 67 67 67 67 66 67 67 66 65 66 64 63 63 63 62 65 64 64 64 64 64 64 63 63 63 63 62 63 62 62 62 63 63 64 64 63 63 63 63 64 64 66 64 63 63 62 63 62 62 63 64 63 62 63 63 62 63 64 64 64 64
67 66 67 66 67 66 66 66 64 63 64 63 63 61 62 63 64 63 63 63 64 64 63 63 62 62 62 62 62 61 61 62 63 62 63 62 63 63 63 63 62 63 62 62 62 62 61 61 62 62 62 63 63 63 63 63 63 62 62 62 64 64
66 65 65 65 65 66 65 64 64 66 62 63 63 62 60 61 62 62 62 62 63 64 63 62 62 62 61 62 62 61 61 62 62 62 62 62 63 63 62 62 62 62 61 61 62 60 60 60 61 62 62 62 61 62 61 61 62 63 62 62 61 62
64 64 63 64 64 64 64 63 62 63 62 62 62 61 61 61 61 61 61 62 62 64 62 61 62 62 62 62 61 61 62 62 62 62 62 61 62 62 62 63 60 61 61 60 60 61 61 60 60 61 62 62 62 62 61 61 61 61 63 61 60 61
64 64 64 64 63 63 63 63 62 62 63 61 61 61 62 62 62 61 61 61 62 63 62 61 61 62 61 62 62 62 62 62 62 62 62 61 61 61 61 62 60 60 61 60 59 60 60 60 61 61 61 61 61 62 61 61 62 62 61 62 62 61
64 63 62 62 62 60 60 60 61 61 60 60 61 60 61 62 61 61 61 61 62 62 63 62 62 62 61 63 62 62 61 62 62 62 61 61 61 61 61 59 60 60 61 61 60 60 60 60 60 60 61 60 61 63 62 62 62 61 61 60 62 64
62 62 61 60 61 60 61 61 60 60 61 60 60 61 59 60 60 60 61 61 61 61 63 62 61 61 62 63 62 62 62 61 61 62 61 60 59 60 60 60 60 61 60 61 61 60 61 60 59 59 59 59 60 61 62 62 61 61 61 60 61 61
61 62 62 61 59 59 59 58 59 60 59 58 60 60 59 58 59 60 61 61 61 61 61 62 63 62 61 65 62 61 61 60 61 61 61 60 59 59 60 60 60 60 60 59 60 60 59 59 57 57 56 57 59 60 62 62 60 60 61 60 59 59
61 61 61 61 61 59 58 61 60 59 57 58 59 59 58 58 59 60 59 60 61 60 60 61 62 61 62 61 61 61 60 60 61 61 61 60 59 61 61 61 61 60 60 59 59 60 60 58 56 55 54 53 54 56 59 60 59 60 60 59 58 58
62 63 61 61 59 58 56 59 61 57 61 57 57 58 58 59 60 59 56 58 60 60 61 61 61 62 61 61 61 60 60 60 60 62 61 60 60 60 60 60 59 60 58 58 59 60 60 58 56 57 55 54 53 50 53 53 56 57 59 58 57 58
63 63 61 62 61 57 59 59 60 59 57 58 59 58 57 57 57 58 58 58 57 58 59 59 60 61 61 60 60 61 60 60 59 60 60 60 59 59 60 60 59 59 59 56 56 57 59 59 57 55 55 54 53 48 47 52 52 55 58 59 58 57
64 63 61 62 60 61 61 59 59 59 60 59 59 56 57 57 56 59 58 57 57 57 57 57 58 59 60 59 59 59 59 59 59 59 60 59 59 59 59 59 58 59 57 56 56 59 60 60 59 60 56 54 52 51 51 52 51 52 56 57 56 57
63 61 61 60 62 63 62 60 59 59 57 55 55 55 55 56 56 57 57 56 56 56 57 56 56 57 58 59 58 58 58 59 59 60 59 58 58 59 59 59 58 59 57 56 58 58 59 60 59 58 57 58 56 54 55 55 54 54 52 55 57 58
63 61 60 60 61 63 61 61 61 61 60 58 57 54 53 53 55 55 55 55 55 55 56 56 55 55 56 57 56 56 56 56 58 58 59 57 58 59 60 60 59 58 58 57 57 56 58 58 58 58 58 59 59 56 53 54 52 48 48 50 54 54
63 61 60 61 61 63 62 60 58 57 58 57 58 57 55 55 54 55 55 55 55 55 55 56 56 55 56 57 57 56 56 56 57 58 60 56 56 56 58 58 59 57 57 57 57 57 56 57 56 55 57 56 56 57 56 55 53 54 50 48 50 53
62 61 60 61 62 62 63 61 60 58 56 56 57 57 56 57 56 55 55 54 54 55 54 55 56 56 55 57 58 56 56 56 57 57 58 57 56 56 56 55 55 56 56 55 56 55 56 54 53 53 55 55 55 54 53 53 54 53 50 47 46 47
61 61 60 60 62 61 61 60 59 58 58 57 57 56 55 55 54 54 55 53 54 55 54 54 54 55 55 56 57 57 57 57 56 57 58 56 55 55 54 54 53 55 55 54 53 55 55 53 53 52 54 54 52 51 52 51 50 50 51 51 51 49
61 61 61 61 61 60 60 60 60 59 59 58 57 56 55 53 53 53 55 52 53 54 54 54 55 54 55 55 55 56 56 56 57 59 57 56 55 55 53 54 54 54 54 54 52 53 53 52 52 52 51 52 50 50 53 51 52 49 50 48 45 46
60 60 60 60 60 60 59 59 60 60 59 59 57 57 57 56 55 55 53 53 52 52 53 53 53 53 53 54 56 54 55 54 55 54 54 54 54 54 54 53 53 53 52 51 52 53 51 51 51 51 50 49 49 50 50 50 50 47 49 49 47 46
59 58 58 58 58 58 57 58 59 60 59 59 58 58 58 56 55 55 53 52 52 53 51 53 53 55 52 53 56 54 54 54 53 54 53 53 51 52 52 51 52 51 50 50 49 50 50 48 50 50 48 47 49 50 49 47 49 48 47 47 48 47
58 58 59 59 59 59 58 59 60 61 60 60 59 58 57 57 56 55 54 54 53 53 53 54 53 54 54 52 54 55 54 52 52 51 52 51 51 50 51 52 51 51 50 49 49 49 49 48 48 47 48 49 49 49 47 49 48 49 47 46 45 46
58 58 58 58 59 59 59 61 59 60 61 61 61 59 58 58 57 55 54 55 54 53 53 54 53 54 52 52 52 52 52 52 52 52 52 53 54 52 52 53 52 51 50 49 50 50 49 50 51 48 47 48 49 47 47 47 48 49 50 50 48 48
57 56 57 57 57 57 56 58 58 58 60 61 61 60 58 58 57 57 55 56 55 54 54 53 53 53 52 53 53 53 53 52 51 52 52 52 52 53 52 52 51 51 51 52 51 50 49 50 49 48 47 46 49 47 47 47 48 48 48 49 49 46
56 57 58 59 58 59 58 58 58 58 59 59 60 59 59 57 57 56 56 55 55 54 53 53 55 53 53 52 54 54 53 52 52 52 52 52 52 51 51 53 52 50 51 49 52 50 49 51 48 48 47 48 49 48 49 48 48 49 49 47 48 47

ECMWFFLT2_sfc_temp_015.txt.gz
Temp
75 77 77 77 76 76 76 75 75 74 75 74 74 74 73 73 74 74 75 74 73 77 77 77 77 79 74 77 73 73 74 74 73 73 73 73 72 73 73 72 72 71 70 69 69 69 70 70 71 71 71 72 73 78 80 79 79 79 80 80 79 81
75 77 77 76 77 77 75 76 77 76 77 76 75 75 76 78 76 78 74 75 77 77 78 78 78 76 77 76 76 73 74 74 73 73 73 72 72 72 72 72 71 70 69 68 68 76 75 72 71 70 71 70 77 80 79 79 78 80 79 80 79 76
76 77 78 79 78 77 76 76 76 76 77 76 77 77 78 78 79 79 79 79 76 77 78 78 77 77 77 74 75 74 73 73 74 73 73 72 72 72 72 72 71 70 68 67 76 77 77 78 78 72 73 77 79 79 79 78 78 79 79 79 80 72
77 77 77 77 77 76 75 75 75 76 77 76 77 77 79 79 79 78 78 77 76 76 76 75 75 74 75 75 74 73 73 73 73 73 73 74 73 73 72 70 70 69 71 76 78 78 78 78 78 78 78 79 79 78 78 78 80 79 80 79 81 70
76 76 77 75 77 76 76 74 75 76 77 77 77 77 78 77 77 77 76 75 77 75 75 76 76 76 75 74 75 76 75 76 77 77 73 77 77 77 76 76 75 74 76 76 77 76 77 77 77 77 78 78 79 78 78 78 79 79 79 79 78 70
75 76 75 75 77 76 75 74 74 75 75 76 76 76 75 74 74 75 75 76 75 74 74 75 75 74 74 74 74 75 74 75 77 76 76 77 77 77 77 76 75 76 76 75 76 76 77 77 77 77 78 78 78 78 79 80 80 78 79 79 77 70
76 76 77 77 78 76 75 75 77 75 76 75 74 74 73 73 74 74 75 75 75 73 73 74 74 73 72 73 73 73 72 74 76 76 75 77 75 76 77 76 75 75 75 75 77 78 77 77 77 77 78 79 79 80 79 80 80 79 79 78 76 70
77 78 77 79 78 76 76 76 74 75 76 74 74 75 74 73 73 73 74 74 74 75 74 74 74 73 72 73 73 74 74 74 76 76 75 75 75 76 77 77 75 76 76 77 78 78 78 79 77 76 73 76 79 79 79 80 79 77 78 78 78 73
77 77 77 78 78 76 75 77 75 76 75 74 74 74 74 73 72 72 73 75 75 73 74 73 72 72 71 72 73 73 72 74 75 76 76 75 76 75 75 76 76 76 76 76 77 77 78 78 77 76 75 74 79 79 79 78 77 77 77 77 78 75
77 77 77 78 76 75 74 74 76 75 76 76 75 74 74 73 72 72 73 74 73 74 73 72 72 71 70 71 72 73 73 76 75 75 75 74 75 76 76 76 76 76 76 75 75 76 77 78 78 77 77 79 77 78 77 78 77 77 78 78 77 76
77 75 77 78 76 75 75 75 77 77 77 76 75 74 72 72 72 72 70 66 65 67 69 69 66 66 67 71 71 72 75 75 75 75 75 75 75 76 76 76 77 76 75 74 72 74 76 75 76 78 75 77 75 71 73 74 76 77 78 77 78 76
74 74 74 77 76 75 75 76 75 76 76 77 74 72 72 71 71 70 66 65 65 67 67 65 64 63 64 64 67 70 72 73 74 76 76 76 76 76 76 76 75 74 74 74 73 73 72 72 74 76 76 75 74 73 71 74 72 72 71 74 76 77
74 73 74 75 75 75 75 76 76 74 75 74 73 73 72 72 71 67 67 68 68 67 66 67 66 66 65 64 64 66 71 73 74 74 75 76 76 75 75 75 74 75 75 75 74 73 73 71 69 71 73 73 74 75 76 76 75 74 72 68 67 72
73 73 73 75 74 75 74 75 76 74 73 73 72 71 71 72 71 69 69 70 68 67 68 69 68 65 65 65 65 64 68 73 74 73 73 73 73 75 75 75 75 76 74 75 75 73 72 70 71 71 72 74 72 71 74 77 76 77 76 75 71 67
72 73 74 74 73 74 73 74 73 73 72 71 71 70 71 70 69 68 68 69 69 69 70 69 69 67 65 64 64 65 66 73 74 74 73 73 74 75 75 74 75 74 73 72 73 71 72 72 72 71 70 71 72 72 72 74 75 76 77 76 75 74
71 72 73 73 73 73 72 72 72 72 71 71 71 72 71 71 71 70 70 69 71 71 70 69 68 67 66 66 66 65 66 71 71 74 74 73 74 75 74 74 74 74 71 71 71 69 71 71 70 70 70 70 71 72 72 73 74 77 76 76 76 74
70 71 72 72 72 72 71 71 72 72 72 71 73 74 74 71 69 69 69 70 70 71 71 70 68 68 68 67 66 67 67 71 71 72 73 73 75 75 74 73 72 72 72 69 72 72 71 71 70 69 69 70 70 71 70 71 74 73 76 75 75 76
71 72 72 71 71 71 72 72 73 73 72 73 72 74 73 73 71 69 69 68 69 71 71 71 71 70 67 70 70 69 69 70 71 72 72 73 74 74 75 73 69 68 69 70 70 71 70 71 72 71 69 69 69 70 70 70 70 70 73 73 72 72
70 71 70 70 70 70 71 71 73 72 72 71 72 72 73 73 70 70 68 69 70 70 70 70 70 72 71 72 70 70 69 70 71 72 72 74 73 72 72 72 69 66 68 70 70 70 70 72 72 71 71 68 69 69 70 70 70 71 72 71 71 70
69 70 70 70 71 72 72 72 71 71 72 71 71 71 72 73 72 73 71 69 69 69 69 70 70 71 71 69 68 69 69 71 72 73 72 72 72 72 71 70 70 68 68 69 72 72 71 70 70 70 67 67 68 70 71 70 70 71 71 71 71 70
69 69 70 71 72 72 72 71 71 72 72 71 71 71 71 71 72 72 71 71 70 70 70 70 71 72 70 69 68 68 69 70 72 73 72 71 71 71 71 70 68 69 67 66 67 69 70 70 69 67 69 68 67 68 70 69 69 69 68 66 66 66
69 69 71 71 72 72 72 74 73 73 73 72 72 73 71 71 70 70 70 70 70 71 70 70 71 71 70 70 68 69 70 71 71 72 71 71 71 70 69 69 69 66 67 67 66 67 67 69 67 66 63 64 67 67 67 68 71 70 68 66 65 65
69 70 71 71 72 72 71 71 73 71 73 71 71 72 74 71 71 71 69 72 72 71 71 72 71 70 70 70 70 69 68 69 70 69 68 69 70 69 70 69 69 67 65 67 66 67 67 69 67 67 67 66 63 64 65 68 69 68 68 66 66 67
69 70 70 71 71 71 70 69 69 69 70 72 70 69 69 70 70 71 70 70 72 73 73 73 72 72 71 70 69 69 69 70 70 71 70 68 68 68 68 69 69 69 68 63 65 65 68 68 69 67 63 64 62 64 62 63 65 67 68 67 67 66
70 70 70 70 70 69 69 68 68 68 70 68 69 70 71 71 71 71 70 70 69 71 71 72 72 72 72 69 69 69 69 69 69 68 71 69 67 68 71 71 70 68 68 68 66 65 65 67 67 69 67 62 61 62 63 63 65 64 68 68 69 69
70 70 69 70 69 70 70 69 69 69 68 69 69 69 70 69 70 71 72 68 70 70 71 70 72 71 70 68 68 68 69 69 68 68 70 70 70 68 68 70 71 71 70 70 69 66 64 66 67 67 68 68 68 65 62 63 63 57 65 67 69 71
70 69 69 69 69 70 69 70 70 71 71 70 69 67 67 67 68 67 68 68 69 68 70 71 70 72 70 69 68 68 68 69 70 70 70 70 70 69 71 72 72 71 72 70 69 66 65 65 66 66 66 66 66 67 68 64 62 62 60 65 67 66
70 69 69 69 69 70 70 70 70 69 70 70 70 67 67 66 66 68 68 67 69 69 69 70 70 71 72 71 69 68 69 69 70 70 71 72 71 71 71 71 70 71 71 71 70 68 66 67 67 64 64 64 64 66 66 66 70 68 66 61 61 66
69 69 68 68 69 70 71 70 70 69 67 68 68 67 68 68 67 67 66 67 68 69 68 67 69 69 70 71 71 70 69 68 69 70 73 73 71 71 70 69 68 69 69 70 70 69 67 67 69 65 64 64 67 67 67 67 67 69 67 63 62 62
68 69 68 68 69 69 70 70 69 69 67 67 67 67 68 67 67 68 67 66 67 68 69 68 68 68 69 70 70 70 71 71 70 71 72 72 71 70 69 69 69 69 69 69 70 70 68 68 69 68 68 67 66 66 67 68 68 68 68 68 63 63
68 68 67 68 68 68 69 70 70 69 68 67 67 67 67 66 67 68 68 67 67 67 68 68 68 67 67 69 68 69 69 70 70 70 69 70 70 71 69 69 68 68 68 68 69 68 68 68 69 68 69 70 69 69 68 67 67 68 68 65 64 63
66 67 67 68 68 68 69 69 69 69 68 68 68 68 68 67 68 68 67 67 67 68 67 67 67 68 67 67 68 68 68 68 68 68 68 69 68 69 68 68 68 68 67 67 68 68 67 66 67 68 68 69 70 70 70 70 70 69 69 67 66 64
61 64 67 67 67 68 68 68 68 69 68 68 68 69 69 67 67 68 67 67 68 68 68 68 68 68 66 66 68 68 68 68 68 67 67 68 67 67 68 68 68 67 67 67 68 68 67 66 67 68 67 68 71 71 69 69 69 69 68 68 68 65
61 62 64 66 67 66 66 66 67 68 67 68 68 68 68 68 67 68 68 68 68 69 69 68 68 67 66 67 68 67 67 66 66 66 66 66 66 67 67 70 68 67 66 66 66 66 66 65 66 66 67 68 68 68 67 68 68 68 67 67 67 65
60 61 62 64 65 64 64 64 65 66 66 67 67 67 67 67 66 66 65 66 67 68 69 68 68 66 66 66 66 66 66 66 65 65 66 66 66 66 66 68 68 65 65 66 66 66 66 65 64 65 66 67 66 67 67 68 69 69 70 69 68 67
59 59 61 63 64 64 63 64 64 64 65 65 66 65 65 64 64 64 62 65 66 66 67 67 66 66 65 66 66 66 66 65 65 65 65 66 66 67 66 67 67 66 64 66 65 65 66 66 64 64 65 66 67 67 67 68 70 69 70 69 68 68
59 59 59 62 62 65 64 63 62 62 64 64 64 64 62 62 61 61 61 63 65 65 65 66 66 66 65 65 65 66 66 65 64 65 65 65 65 66 66 67 67 66 65 66 67 66 66 66 65 65 66 66 67 67 67 67 68 68 67 68 69 69